GW0823 Weather Reports


time (UTC)temp
C
wind
direction
speed
KPH
gust
KPH
rain 1hr
cm
rain 24hr
cm
rain mn
cm
humidity
%
barometer
mb
20260906124601 20 328 0.0 3.2 0.00 0.48 0.00 94 1015.5
20260906123105 20 0 0.0 3.2 0.00 0.48 0.00 94 1015.4
20260906121604 20 0 0.0 4.8 0.00 0.48 0.00 94 1015.3
20260906120106 20 0 0.0 4.8 0.00 0.48 0.00 94 1015.0
20260906114606 20 336 0.0 4.8 0.00 0.48 0.00 95 1014.8
20260906113106 20 0 0.0 4.8 0.00 0.48 0.00 94 1014.7
20260906111600 20 271 0.0 4.8 0.00 0.48 0.00 95 1014.3
20260906110104 20 224 0.0 3.2 0.00 0.48 0.00 95 1014.2
20260906104628 20 0 1.6 4.8 0.00 0.48 0.00 96 1014.0
20260906103115 20 333 1.6 4.8 0.00 0.48 0.00 96 1013.9
20260906101603 20 0 0.0 4.8 0.00 0.48 0.00 96 1013.8
20260906094643 20 0 0.0 0.0 0.00 0.48 0.00 97 1013.8
20260906093111 20 0 0.0 0.0 0.00 0.48 0.00 97 1013.7
20260906091617 20 0 0.0 4.8 0.00 0.48 0.00 97 1013.9
20260906090105 20 286 1.6 3.2 0.00 0.48 0.00 97 1013.8
20260906084607 20 0 0.0 0.0 0.00 0.48 0.00 97 1013.8
20260906083105 20 0 0.0 0.0 0.00 0.48 0.00 97 1013.6
20260906081603 20 0 0.0 0.0 0.00 0.48 0.00 97 1013.7
20260906080104 20 0 0.0 3.2 0.00 0.48 0.00 97 1013.6
20260906074604 20 0 0.0 4.8 0.00 0.48 0.00 97 1013.6
20260906073103 20 0 0.0 4.8 0.00 0.48 0.00 97 1013.4
20260906071601 20 0 0.0 0.0 0.00 0.48 0.00 97 1013.5
20260906070104 20 0 0.0 0.0 0.00 0.48 0.00 97 1013.6
20260906064605 20 0 0.0 0.0 0.00 0.48 0.00 97 1013.7
20260906063103 20 0 0.0 0.0 0.00 0.48 0.00 97 1013.8
20260906061606 20 0 0.0 0.0 0.00 0.48 0.00 96 1013.7
20260906060111 20 0 0.0 0.0 0.00 0.48 0.00 96 1013.7
20260906054558 20 0 0.0 0.0 0.00 0.48 0.00 96 1013.6
20260906053109 20 0 0.0 0.0 0.00 0.48 0.00 96 1013.6
20260906051605 20 0 0.0 0.0 0.00 0.48 0.00 96 1013.5
20260906050133 20 0 0.0 0.0 0.00 0.48 0.00 95 1013.6
20260906044606 20 0 0.0 0.0 0.00 0.48 0.00 95 1013.6
20260906043102 20 0 0.0 0.0 0.00 0.48 0.00 95 1013.7
20260906041605 20 0 0.0 0.0 0.00 0.48 0.00 95 1013.7
20260906040138 20 0 0.0 0.0 0.00 0.48 0.00 95 1013.9
20260906034609 21 0 0.0 0.0 0.00 0.48 0.48 94 1014.1
20260906033104 21 0 0.0 0.0 0.00 0.48 0.48 94 1014.2
20260906031605 21 0 0.0 0.0 0.00 0.48 0.48 94 1014.4
20260906030111 21 0 0.0 0.0 0.03 0.48 0.48 93 1014.3
20260906024608 21 0 0.0 1.6 0.03 0.48 0.48 93 1014.4
20260906023104 21 0 1.6 4.8 0.03 0.48 0.48 92 1014.4
20260906021609 21 267 4.8 11.3 0.03 0.48 0.48 91 1014.3
20260906020107 21 323 4.8 11.3 0.00 0.46 0.46 93 1014.1
20260906014603 21 281 4.8 11.3 0.00 0.46 0.46 94 1014.0
20260906013108 21 0 0.0 4.8 0.00 0.46 0.46 94 1013.6
20260906011607 21 0 0.0 4.8 0.00 0.46 0.46 94 1013.6
20260906010110 21 0 0.0 6.4 0.00 0.46 0.46 93 1013.5
20260906004606 21 103 1.6 4.8 0.00 0.46 0.46 93 1013.1
20260906003103 21 103 1.6 3.2 0.00 0.46 0.46 91 1013.0
20260906001621 22 0 0.0 0.0 0.00 0.46 0.46 91 1013.2
20260906000108 22 103 3.2 6.4 0.00 0.46 0.46 89 1012.8
20260905234602 22 101 1.6 4.8 0.00 0.46 0.46 87 1013.0
20260905233113 23 101 3.2 4.8 0.00 0.46 0.46 85 1013.0
20260905231607 25 98 3.2 4.8 0.00 0.46 0.46 81 1013.1
20260905230118 26 0 0.0 0.0 0.00 0.46 0.46 73 1013.2
20260905224610 27 0 0.0 3.2 0.00 0.46 0.46 70 1013.3
20260905223127 27 0 0.0 0.0 0.00 0.46 0.46 71 1013.2
20260905221625 26 0 0.0 6.4 0.00 0.46 0.46 71 1013.2
20260905220105 27 218 3.2 8.0 0.00 0.46 0.46 69 1013.2
20260905214604 27 246 3.2 9.7 0.00 0.46 0.46 71 1013.0
20260905213111 27 264 3.2 9.7 0.00 0.46 0.46 68 1012.9
20260905211624 27 273 3.2 11.3 0.00 0.46 0.46 67 1012.9
20260905210118 27 306 3.2 11.3 0.00 0.46 0.46 67 1012.8
20260905204606 27 314 6.4 12.9 0.00 0.46 0.46 66 1012.7
20260905203104 27 266 3.2 9.7 0.00 0.46 0.46 67 1012.6
20260905201610 27 325 4.8 16.1 0.00 0.46 0.46 68 1012.8
20260905200147 27 0 3.2 9.7 0.00 0.46 0.46 68 1013.0
20260905194621 27 186 6.4 11.3 0.00 0.97 0.46 67 1013.3
20260905193106 27 345 4.8 8.0 0.00 0.97 0.46 67 1013.4
20260905191603 27 0 1.6 4.8 0.00 0.97 0.46 66 1013.6
20260905190107 27 200 3.2 6.4 0.00 0.97 0.46 68 1013.7
20260905184612 27 0 0.0 9.7 0.00 0.97 0.46 71 1014.0
20260905183112 26 219 0.0 11.3 0.00 0.97 0.46 73 1014.1
20260905181604 26 115 4.8 11.3 0.00 0.97 0.46 72 1013.9
20260905174607 26 253 3.2 6.4 0.00 0.97 0.46 77 1014.4
20260905173105 25 263 1.6 4.8 0.00 0.97 0.46 77 1014.9
20260905171607 25 193 3.2 9.7 0.00 0.97 0.46 79 1015.0
20260905170101 25 0 0.0 4.8 0.00 0.97 0.46 79 1015.2
20260905164605 25 325 1.6 4.8 0.00 0.97 0.46 81 1015.3
20260905163104 24 215 0.0 6.4 0.00 0.97 0.46 83 1015.6
20260905161611 23 271 1.6 11.3 0.00 0.97 0.46 86 1015.8
20260905154604 22 271 4.8 16.1 0.00 0.97 0.46 89 1015.6
20260905153102 23 271 6.4 12.9 0.00 0.97 0.46 90 1015.5
20260905151603 21 323 1.6 4.8 0.03 0.97 0.46 95 1014.8
20260905150105 20 117 3.2 9.7 0.05 0.97 0.46 95 1014.2
20260905144602 20 98 8.0 16.1 0.08 0.97 0.46 96 1013.9
20260905143105 20 103 9.7 14.5 0.08 0.97 0.46 96 1014.3
20260905141602 20 89 3.2 6.4 0.05 0.94 0.43 96 1015.0
20260905140106 20 100 3.2 6.4 0.10 0.91 0.41 96 1015.5
20260905134615 20 96 3.2 6.4 0.13 0.89 0.38 96 1015.6
20260905133100 20 86 1.6 9.7 0.20 0.89 0.38 96 1015.8
20260905131608 20 94 6.4 9.7 0.28 0.89 0.38 95 1016.2
20260905130105 20 90 0.0 4.8 0.30 0.81 0.30 94 1016.4